Gallup, NM

8:20 PM MDT on September 25, 2017 (GMT -0600)
Gallup Municipal

Weather History for KGUP - July, 2013

Change the Weather History Date:

Monday, July 8, 2013

  Actual Average Record
Temperature  
Mean Temperature 73 °F -  
Max Temperature 86 °F 86 °F 96 °F (1985)
Min Temperature 62 °F 50 °F 46 °F (1987)
Cooling Degree Days 8    
Growing Degree Days 23 (Base 50)    
Moisture  
Dew Point 52 °F    
Average Humidity 53    
Maximum Humidity 87    
Minimum Humidity 24    
Precipitation  
Precipitation 0.00 in - - ()
Sea Level Pressure  
Sea Level Pressure 29.74 in    
Wind  
Wind Speed 5 mph (NNE)    
Max Wind Speed 16 mph    
Max Gust Speed -    
Visibility 10 miles    
Events      
Averages and records for this station are not official NWS values.
T = Trace of Precipitation, MM = Missing Value Source: NWS Daily Summary

Daily Weather History Graph

Daily Weather History Graph

Search for Another Location

Airport or City:

Trip Planner

Search our weather history database for the weather conditions in past years. The results will help you decide how hot, cold, wet, or windy it might be!

Date:

Astronomy

Jul. 08, 2013 Rise Set
Actual Time 6:07 AM MDT 8:33 PM MDT
Civil Twilight 5:37 AM MDT 9:02 PM MDT
Nautical Twilight 5:01 AM MDT 9:39 PM MDT
Astronomical Twilight 4:20 AM MDT 10:19 PM MDT
Moon 6:36 AM MDT (7/8) 8:41 PM MDT (7/8)
Length of Visible Light 15h 25m
Length of Day
14h 26m
New Moon, 0% of the Moon is Illuminated
Jul 8
New Moon
Jul 15
First Quarter
Jul 22
Full
Jul 29
Last Quarter
Aug 6
New

Hourly Weather History & Observations

Time (MDT) Temp. Dew Point Humidity Pressure Visibility Wind Dir Wind Speed Gust Speed Precip Events Conditions
12:53 AM 64.9 °F 57.0 °F 75% 29.70 in 10.0 mi ENE 11.5 mph - N/A   Mostly Cloudy
1:53 AM 64.9 °F 57.0 °F 75% 29.70 in 10.0 mi NNE 3.5 mph - N/A   Mostly Cloudy
2:53 AM 64.0 °F 57.9 °F 80% 29.67 in 10.0 mi North 3.5 mph - N/A   Partly Cloudy
3:53 AM 63.0 °F 59.0 °F 87% 29.69 in 10.0 mi Calm Calm - N/A   Clear
4:53 AM 63.0 °F 59.0 °F 87% 29.68 in 10.0 mi Calm Calm - N/A   Clear
5:53 AM 63.0 °F 59.0 °F 87% 29.69 in 10.0 mi Calm Calm - N/A   Clear
6:53 AM 62.1 °F 57.9 °F 86% 29.73 in 10.0 mi Calm Calm - N/A   Clear
7:53 AM 64.9 °F 57.9 °F 78% 29.75 in 10.0 mi Calm Calm - 0.00 in   Overcast
8:53 AM 69.1 °F 57.0 °F 65% 29.76 in 10.0 mi Calm Calm - N/A   Clear
9:53 AM 73.9 °F 55.9 °F 53% 29.82 in 10.0 mi NE 4.6 mph - N/A   Clear
10:53 AM 77.0 °F 52.0 °F 42% 29.82 in 10.0 mi Calm Calm - N/A   Clear
11:53 AM 78.1 °F 51.1 °F 39% 29.81 in 10.0 mi Calm Calm - N/A   Scattered Clouds
12:53 PM 80.1 °F 48.9 °F 34% 29.79 in 10.0 mi Calm Calm - N/A   Partly Cloudy
1:53 PM 82.0 °F 46.0 °F 28% 29.75 in 10.0 mi Calm Calm - N/A   Partly Cloudy
2:53 PM 84.9 °F 46.9 °F 27% 29.71 in 10.0 mi Variable 4.6 mph - N/A   Clear
3:53 PM 84.9 °F 45.0 °F 25% 29.71 in 10.0 mi NW 10.4 mph - N/A   Scattered Clouds
4:53 PM 84.9 °F 46.9 °F 27% 29.70 in 10.0 mi NNW 11.5 mph - N/A   Partly Cloudy
5:53 PM 84.0 °F 43.0 °F 24% 29.70 in 10.0 mi NNW 12.7 mph - N/A   Clear
6:53 PM 82.9 °F 45.0 °F 26% 29.71 in 10.0 mi North 9.2 mph - N/A   Clear
7:53 PM 82.0 °F 46.0 °F 28% 29.70 in 10.0 mi NE 3.5 mph - N/A   Mostly Cloudy
8:53 PM 78.1 °F 52.0 °F 40% 29.72 in 10.0 mi SSE 4.6 mph - N/A   Scattered Clouds
9:53 PM 72.0 °F 52.0 °F 49% 29.78 in 10.0 mi South 16.1 mph - N/A   Mostly Cloudy
10:53 PM 69.1 °F 52.0 °F 54% 29.83 in 10.0 mi Calm Calm - N/A   Clear
11:53 PM 66.9 °F 53.1 °F 61% 29.83 in 10.0 mi SSW 9.2 mph - N/A   Clear